This demonstration page uses our WeatherBlox Daily Observations layout. Learn more.

Left ArrowRight Arrow

Hourly Observations for August 4, 2021

Temp ( °F °C ) Dew Point ( °F °C ) Humidity (%) Winds ( mph kmh ) Pressure ( in mb ) Visibility ( mi km ) Precip ( " mm )
12:15 am 00:15 Mostly Cloudy 66 19.1 62 16.6 86 86 ESE 8 13 29.98 1015 10 16 N/A
12:35 am 00:35 Partly Cloudy 66 18.7 62 16.5 87 87 SE 8 13 29.98 1015 10 16 N/A
12:55 am 00:55 Clear 65 18.5 61 16.2 87 87 SE 8 13 29.98 1015 10 16 N/A
1:15 am 01:15 Clear 65 18.3 61 16 87 87 SE 8 13 29.99 1015 10 16 N/A
1:35 am 01:35 Clear 65 18.2 60 15.7 85 85 SE 7 11 29.99 1015 10 16 N/A
1:55 am 01:55 Clear 64 17.7 60 15.5 87 87 SE 7 11 29.98 1015 10 16 N/A
2:15 am 02:15 Clear 64 17.5 59 15.1 86 86 SE 6 9 29.98 1015 10 16 N/A
2:35 am 02:35 Clear 63 17.2 59 15 87 87 SE 6 9 29.99 1015 10 16 N/A
2:55 am 02:55 Clear 63 17.2 59 14.8 86 86 SE 6 9 29.99 1015 10 16 N/A
3:15 am 03:15 Clear 63 17.1 58 14.7 86 86 SE 6 9 29.98 1015 10 16 N/A
3:35 am 03:35 Clear 63 17 58 14.6 86 86 SE 6 9 29.98 1015 10 16 N/A
3:55 am 03:55 Clear 62 16.6 58 14.5 88 88 SE 6 9 29.98 1015 10 16 N/A
4:15 am 04:15 Clear 61 16.3 58 14.5 89 89 SE 5 7 29.98 1015 10 16 N/A
4:35 am 04:35 Clear 61 15.9 58 14.2 90 90 SE 6 9 29.98 1015 10 16 N/A
4:55 am 04:55 Clear 60 15.7 58 14.2 91 91 SE 5 7 29.98 1015 7 11 N/A
5:15 am 05:15 Clear 60 15.7 57 14.1 90 90 SE 6 9 29.98 1015 10 16 N/A
5:35 am 05:35 Clear 61 16 58 14.3 90 90 SE 7 11 29.97 1015 7 11 N/A
5:55 am 05:55 Clear 61 15.9 58 14.3 90 90 SE 7 11 29.97 1015 7 11 N/A
6:15 am 06:15 Clear 62 16.5 58 14.3 87 87 SE 7 11 29.96 1015 10 16 N/A
6:35 am 06:35 Clear 61 16.1 58 14.2 89 89 SE 5 7 29.97 1015 7 11 N/A
6:55 am 06:55 Sunny 62 16.5 58 14.4 87 87 SSE 9 15 29.97 1015 7 11 N/A
7:15 am 07:15 Sunny 62 16.5 58 14.5 88 88 SSE 8 13 29.97 1015 7 11 N/A
7:35 am 07:35 Sunny 62 16.8 58 14.5 86 86 SSE 9 15 29.98 1015 7 11 N/A
7:55 am 07:55 Sunny 63 17.2 58 14.7 85 85 SE 7 11 29.98 1015 7 11 N/A
8:15 am 08:15 Sunny 64 17.8 59 14.8 83 83 SSE 7 11 29.97 1015 10 16 N/A
8:35 am 08:35 Sunny 65 18.6 59 15 80 80 SSE 8 13 29.96 1015 10 16 N/A
8:55 am 08:55 Sunny 67 19.6 59 15.2 76 76 S 8 13 29.96 1014 10 16 N/A
9:15 am 09:15 Sunny 69 20.5 59 15 71 71 S 12 19 29.95 1014 7 11 N/A
9:35 am 09:35 Sunny 71 21.4 60 15.3 68 68 S 10 17 29.94 1014 10 16 N/A
10:15 am 10:15 Sunny 74 23.2 60 15.4 62 62 S 9 15 29.91 1013 10 16 N/A
10:35 am 10:35 Sunny 74 23.5 60 15.6 61 61 S 12 19 29.91 1013 10 16 N/A
10:55 am 10:55 Sunny 76 24.2 60 15.8 60 60 SSW 8 13 29.91 1013 10 16 N/A
11:15 am 11:15 Sunny 77 25.1 61 16.3 58 58 S 10 17 29.90 1012 10 16 N/A
11:35 am 11:35 Sunny 79 26.1 62 16.5 56 56 SSW 10 17 29.90 1013 10 16 N/A
11:55 am 11:55 Sunny 80 26.8 62 16.7 54 54 SSW 8 13 29.89 1012 10 16 N/A
12:15 pm 12:15 Sunny 83 28.2 63 17.2 51 51 SSW 10 17 29.87 1012 10 16 N/A
12:35 pm 12:35 Sunny 83 28.5 63 17.4 51 51 SSW 7 11 29.88 1012 10 16 N/A
12:55 pm 12:55 Sunny 85 29.7 64 17.8 49 49 SW 8 13 29.86 1011 10 16 N/A
1:15 pm 13:15 Sunny 85 29.6 64 17.6 48 48 WSW 9 15 29.86 1011 10 16 N/A
1:35 pm 13:35 Sunny 85 29.7 64 17.6 48 48 WSW 8 13 29.85 1011 10 16 N/A
1:55 pm 13:55 Partly Cloudy 85 29.7 64 17.9 49 49 WSW 6 9 29.85 1011 10 16 N/A
2:15 pm 14:15 Sunny 87 30.3 64 18 48 48 W 6 9 29.85 1011 10 16 N/A
2:35 pm 14:35 Sunny 87 30.6 63 17.3 45 45 WNW 9 15 29.83 1010 10 16 N/A
2:55 pm 14:55 Sunny 88 31 63 17.4 44 44 WNW 6 9 29.82 1010 10 16 N/A
3:15 pm 15:15 Sunny 86 30.2 68 20 54 54 NW 8 13 29.83 1010 7 11 N/A
3:35 pm 15:35 Sunny 87 30.3 67 19.2 51 51 NNW 8 13 29.83 1010 7 11 N/A
3:55 pm 15:55 Sunny 89 31.4 65 18.3 46 46 NNW 7 11 29.82 1010 10 16 N/A
4:15 pm 16:15 Sunny 88 31.2 66 18.7 47 47 NNW 8 13 29.81 1009 10 16 N/A
4:35 pm 16:35 Sunny 88 31.1 67 19.3 49 49 NNW 7 11 29.81 1009 7 11 N/A
4:55 pm 16:55 Sunny with Nearby Thunderstorms 87 30.8 65 18.3 47 47 NNW 5 7 29.81 1010 10 16 N/A
5:15 pm 17:15 Sunny 84 28.8 68 20.1 59 59 NNW 3 6 29.83 1010 10 16 N/A
5:35 pm 17:35 Partly Cloudy with Nearby Thunderstorms 84 28.8 68 20 59 59 NNW 3 6 29.84 1010 7 11 N/A
5:55 pm 17:55 Mostly Cloudy with Thunderstorms 82 28 69 20.3 63 63 WNW 3 6 29.85 1011 7 11 N/A
6:15 pm 18:15 Cloudy with Light Rain 71 21.8 65 18.3 81 81 W 26 43 29.91 1013 7 11 N/A
6:35 pm 18:35 Cloudy with Light Rain 68 20.2 64 18 87 87 WNW 16 26 29.95 1014 7 11 N/A
6:55 pm 18:55 Cloudy with Nearby Thunderstorms 68 20.2 64 17.9 87 87 NNW 13 20 29.96 1015 10 16 0.01 0.25
7:15 pm 19:15 Cloudy with Thunderstorms 68 20.1 62 16.9 82 82 N 12 19 29.96 1015 10 16 N/A
7:35 pm 19:35 Cloudy with Thunderstorms 68 19.9 62 16.5 81 81 N 15 24 29.96 1015 10 16 0.02 0.51
7:55 pm 19:55 Cloudy with Thunderstorms 67 19.7 61 16.2 80 80 NNE 15 24 29.97 1015 10 16 0.04 1.02
8:15 pm 20:15 Cloudy with Light Rain 68 20.2 61 16.2 78 78 NNE 14 22 29.96 1015 10 16 N/A
8:35 pm 20:35 Cloudy with Light Rain 68 19.9 60 15.8 77 77 NE 10 17 29.97 1015 10 16 N/A
8:55 pm 20:55 Cloudy with Light Rain 66 19.1 62 16.5 85 85 W 7 11 29.99 1016 10 16 N/A
9:15 pm 21:15 Cloudy with Rain 68 19.8 62 16.4 81 81 WSW 5 7 29.97 1015 10 16 0.01 0.25
9:35 pm 21:35 Cloudy with Light Rain 67 19.7 62 16.4 81 81 N N/A 29.97 1015 10 16 0.01 0.25
9:55 pm 21:55 Mostly Cloudy 66 19 63 17.2 89 89 WNW 3 6 29.96 1015 10 16 0.01 0.25
10:15 pm 22:15 Partly Cloudy 66 19.1 63 17.3 89 89 SW 6 9 29.97 1015 10 16 N/A
10:35 pm 22:35 Partly Cloudy 67 19.6 63 17 85 85 N N/A 29.97 1015 10 16 N/A
10:55 pm 22:55 Partly Cloudy 67 19.4 64 17.8 91 91 N N/A 29.98 1015 10 16 N/A
11:15 pm 23:15 Partly Cloudy 66 18.7 64 17.8 95 95 N N/A 29.98 1015 7 11 N/A
11:35 pm 23:35 Mostly Cloudy 66 19.1 64 18 93 93 SSE 3 6 29.99 1016 7 11 N/A
11:55 pm 23:55 Cloudy 67 19.2 64 18 93 93 N N/A 29.99 1016 7 11 N/A

Powered by AerisWeather